DW1970 Weather Reports


Display with metric or nautical units.
time (UTC)temp
F
wind
direction
speed
MPH
gust
MPH
rain 1hr
in
rain 24hr
in
rain mn
in
humidity
%
barometer
mb
20260831001541 62 1 1.0 10.0 0.00 0.00 0.00 81 1012.7
20260831000039 62 329 0.0 5.0 0.00 0.00 0.00 79 1012.7
20260830234538 62 344 0.0 9.0 0.00 0.00 0.00 79 1012.8
20260830233038 63 355 0.0 9.0 0.00 0.00 0.00 78 1012.8
20260830231539 64 356 0.0 3.0 0.00 0.00 0.00 76 1012.9
20260830230036 63 7 1.0 6.0 0.00 0.00 0.00 76 1013.0
20260830224538 63 325 0.0 5.0 0.00 0.00 0.00 78 1013.1
20260830223036 63 338 0.0 4.0 0.00 0.00 0.00 76 1013.2
20260830221534 64 340 0.0 0.0 0.00 0.00 0.00 74 1013.3
20260830220038 64 341 0.0 1.0 0.00 0.00 0.00 74 1013.4
20260830214533 64 4 0.0 5.0 0.00 0.00 0.00 75 1013.7
20260830213033 64 320 0.0 0.0 0.00 0.00 0.00 75 1014.0
20260830211532 64 313 0.0 0.0 0.00 0.00 0.00 76 1014.1
20260830210033 64 330 0.0 0.0 0.00 0.00 0.00 75 1014.2
20260830204535 64 341 0.0 0.0 0.00 0.00 0.00 75 1014.2
20260830203030 64 309 0.0 0.0 0.00 0.00 0.00 73 1014.3
20260830201530 64 312 0.0 0.0 0.00 0.00 0.00 73 1014.4
20260830200028 64 310 0.0 0.0 0.00 0.00 0.00 74 1014.5
20260830194527 64 294 0.0 2.0 0.00 0.00 0.00 76 1014.6
20260830193024 63 289 0.0 0.0 0.00 0.00 0.00 79 1014.7
20260830191519 62 305 0.0 5.0 0.00 0.00 0.00 80 1014.6
20260830190018 61 214 0.0 0.0 0.00 0.00 0.00 80 1014.8
20260830184516 61 319 0.0 6.0 0.00 0.00 0.00 81 1014.8
20260830183014 60 277 0.0 4.0 0.00 0.00 0.00 82 1014.7
20260830181511 60 241 0.0 0.0 0.00 0.00 0.00 83 1014.7
20260830180011 60 237 0.0 0.0 0.00 0.00 0.00 84 1014.6
20260830174509 59 245 0.0 0.0 0.00 0.00 0.00 85 1014.6
20260830173005 58 224 0.0 0.0 0.00 0.00 0.00 88 1014.6
20260830171508 58 277 0.0 3.0 0.00 0.00 0.00 87 1014.5
20260830170002 57 322 0.0 0.0 0.00 0.00 0.00 86 1014.5
20260830164502 57 324 0.0 0.0 0.00 0.00 0.00 87 1014.4
20260830163001 57 337 0.0 0.0 0.00 0.00 0.00 87 1014.4
20260830161612 56 335 0.0 0.0 0.00 0.00 0.00 87 1014.4
20260830160059 56 329 0.0 0.0 0.00 0.00 0.00 86 1014.5
20260830154559 57 287 0.0 0.0 0.00 0.00 0.00 86 1014.4
20260830153103 57 143 0.0 0.0 0.00 0.00 0.00 85 1014.3
20260830151559 56 139 0.0 0.0 0.00 0.00 0.00 85 1014.3
20260830150053 56 139 0.0 0.0 0.00 0.00 0.00 84 1014.1
20260830144551 56 139 0.0 0.0 0.00 0.00 0.00 86 1014.0
20260830143048 54 145 0.0 0.0 0.00 0.00 0.00 87 1013.8
20260830141547 55 145 0.0 0.0 0.00 0.00 0.00 86 1013.5
20260830140107 54 169 0.0 0.0 0.00 0.00 0.00 86 1013.4
20260830134545 54 110 0.0 1.0 0.00 0.00 0.00 85 1013.2
20260830133047 54 137 0.0 0.0 0.00 0.00 0.00 83 1013.1
20260830131544 54 140 0.0 0.0 0.00 0.00 0.00 85 1012.9
20260830130053 54 114 0.0 0.0 0.00 0.00 0.00 84 1013.0
20260830124544 55 115 0.0 0.0 0.00 0.00 0.00 83 1012.9
20260830123042 54 117 0.0 0.0 0.00 0.00 0.00 85 1012.8
20260830121540 54 114 0.0 0.0 0.00 0.00 0.00 85 1012.8
20260830120038 54 112 0.0 0.0 0.00 0.00 0.00 88 1012.7
20260830114538 53 121 0.0 0.0 0.00 0.01 0.00 89 1012.8
20260830113040 53 146 0.0 0.0 0.00 0.01 0.00 90 1012.7
20260830111535 53 183 0.0 0.0 0.00 0.01 0.00 91 1012.7
20260830110042 53 183 0.0 0.0 0.00 0.01 0.00 91 1012.8
20260830104536 53 183 0.0 0.0 0.00 0.01 0.00 92 1012.7
20260830103032 52 190 0.0 0.0 0.00 0.01 0.00 92 1012.8
20260830101531 53 200 0.0 0.0 0.00 0.01 0.00 92 1012.7
20260830100031 53 195 0.0 0.0 0.00 0.01 0.00 93 1012.7
20260830094531 53 197 0.0 3.0 0.00 0.01 0.00 93 1012.7
20260830093029 52 148 0.0 0.0 0.00 0.01 0.00 94 1012.8
20260830091528 52 173 0.0 1.0 0.00 0.01 0.00 95 1012.9
20260830090026 51 202 0.0 1.0 0.00 0.01 0.00 94 1013.0
20260830084525 51 206 0.0 0.0 0.00 0.01 0.00 94 1013.0
20260830083022 52 212 0.0 0.0 0.00 0.01 0.00 94 1013.2
20260830081522 52 250 0.0 0.0 0.00 0.01 0.00 94 1013.2
20260830080022 52 250 0.0 0.0 0.00 0.01 0.00 94 1013.1
20260830074522 52 250 0.0 0.0 0.00 0.01 0.00 93 1013.2
20260830073018 52 250 0.0 0.0 0.00 0.01 0.00 93 1013.2
20260830071538 53 255 0.0 0.0 0.00 0.01 0.00 93 1013.3
20260830070021 53 256 0.0 0.0 0.00 0.01 0.00 93 1013.4
20260830064514 53 249 0.0 0.0 0.00 0.01 0.01 93 1013.4
20260830063013 53 284 0.0 0.0 0.00 0.01 0.01 93 1013.4
20260830061512 53 341 0.0 0.0 0.00 0.01 0.01 93 1013.5
20260830060012 54 330 0.0 0.0 0.00 0.01 0.01 93 1013.5
20260830054514 54 341 0.0 1.0 0.00 0.01 0.01 93 1013.6
20260830053011 54 341 0.0 4.0 0.00 0.01 0.01 93 1013.7
20260830051515 54 331 0.0 6.0 0.00 0.01 0.01 92 1013.9
20260830050014 55 350 0.0 10.0 0.00 0.01 0.01 92 1014.0
20260830044510 55 19 1.0 8.0 0.00 0.01 0.01 92 1014.0
20260830043009 55 9 1.0 8.0 0.00 0.01 0.01 92 1014.1
20260830041510 55 28 0.0 8.0 0.00 0.01 0.01 91 1013.9
20260830040008 55 1 2.0 8.0 0.00 0.01 0.01 91 1013.6
20260830034508 56 10 4.0 16.0 0.00 0.01 0.01 91 1013.5
20260830033007 56 360 2.0 18.0 0.00 0.01 0.01 90 1013.3
20260830031508 56 3 3.0 17.0 0.00 0.01 0.01 90 1013.2
20260830030007 56 16 4.0 20.0 0.00 0.01 0.01 89 1013.1
20260830024506 57 23 6.0 23.0 0.00 0.01 0.01 87 1013.1
20260830023005 58 11 8.0 25.0 0.00 0.01 0.01 86 1013.0
20260830021514 59 17 7.0 20.0 0.00 0.01 0.01 84 1012.9
20260830020005 59 7 8.0 28.0 0.00 0.01 0.01 83 1012.9
20260830014504 60 6 8.0 26.0 0.00 0.01 0.01 80 1012.9
20260830013003 61 360 7.0 26.0 0.00 0.01 0.01 78 1012.9
20260830011510 62 358 12.0 33.0 0.00 0.01 0.01 76 1012.9
20260830010003 62 357 10.0 29.0 0.00 0.01 0.01 73 1012.6
20260830004503 63 353 9.0 30.0 0.00 0.01 0.01 73 1012.6
20260830003001 63 323 6.0 28.0 0.00 0.01 0.01 72 1012.6